When you browse on this site, cookies collect data to enhance your experience and personalize the content and advertising you see.
Visit our Privacy Policy to learn more. By continuing to use the site, you agree to this use of cookies and data.
  • Em Portugal
  • Lista de países
  • Para 7 dias
  • Temperatura da água
  • Mapas de satélite
  • Mapa do tempo
  • Widgets de tempo
  • user-avatar
    Iniciar Sessão

    Previsão horária em Connaught

    Hoje, 18 Janeiro, Sexta-feira

    Tempo Temperatura Precipitação Vento Pressão Humidade
    00:00 -1°C° 0.7 mm 6 m/s 740 mmHg 79%
    01:00 -1°C° 0.7 mm 7 m/s 740 mmHg 84%
    02:00 -1°C° 0.7 mm 7 m/s 739 mmHg 88%
    03:00 -1°C° 0.1 mm 7 m/s 738 mmHg 91%
    04:00 +1°C° 0.1 mm 6 m/s 737 mmHg 93%
    05:00 +1°C° 0 mm 5 m/s 737 mmHg 95%
    06:00 +2°C° 0.1 mm 5 m/s 737 mmHg 96%
    07:00 +3°C° 0.1 mm 4 m/s 736 mmHg 97%
    08:00 +3°C° 0.1 mm 4 m/s 736 mmHg 98%
    09:00 +4°C° 0 mm 3 m/s 736 mmHg 97%
    10:00 +4°C° 0 mm 3 m/s 736 mmHg 95%
    11:00 +5°C° 0 mm 4 m/s 736 mmHg 94%
    12:00 +5°C° 0 mm 4 m/s 736 mmHg 93%
    13:00 +6°C° 0 mm 4 m/s 736 mmHg 93%
    14:00 +6°C° 0 mm 4 m/s 735 mmHg 92%
    15:00 +5°C° 0.2 mm 4 m/s 735 mmHg 94%
    16:00 +5°C° 0.2 mm 4 m/s 735 mmHg 95%
    17:00 +5°C° 0.2 mm 4 m/s 735 mmHg 97%
    18:00 +4°C° 0.7 mm 4 m/s 735 mmHg 97%
    19:00 +4°C° 0.7 mm 3 m/s 735 mmHg 97%
    20:00 +4°C° 0.7 mm 3 m/s 735 mmHg 98%
    21:00 +5°C° 0 mm 2 m/s 735 mmHg 98%
    22:00 +4°C° 0 mm 2 m/s 735 mmHg 98%
    23:00 +5°C° 0 mm 1 m/s 735 mmHg 98%

    Amanhã, 19 Janeiro, Sábado

    Tempo Temperatura Precipitação Vento Pressão Humidade
    00:00 +4°C° 0 mm 1 m/s 735 mmHg 97%
    01:00 +4°C° 0 mm 1 m/s 735 mmHg 97%
    02:00 +4°C° 0 mm 1 m/s 735 mmHg 97%
    03:00 +4°C° 0 mm 1 m/s 735 mmHg 97%
    04:00 +3°C° 0 mm 0 m/s 735 mmHg 97%
    05:00 +2°C° 0 mm 0 m/s 736 mmHg 97%
    06:00 +2°C° 0 mm 0 m/s 736 mmHg 97%
    07:00 +3°C° 0 mm 0 m/s 736 mmHg 97%
    08:00 +4°C° 0 mm 1 m/s 737 mmHg 97%
    09:00 +4°C° 0 mm 0 m/s 737 mmHg 96%
    10:00 +4°C° 0 mm 0 m/s 738 mmHg 95%
    11:00 +5°C° 0 mm 0 m/s 738 mmHg 94%
    12:00 +6°C° 0 mm 0 m/s 738 mmHg 94%
    13:00 +6°C° 0 mm 0 m/s 738 mmHg 94%
    14:00 +7°C° 0 mm 1 m/s 739 mmHg 93%
    15:00 +6°C° 0 mm 0 m/s 739 mmHg 94%
    16:00 +6°C° 0 mm 0 m/s 740 mmHg 95%
    17:00 +5°C° 0 mm 0 m/s 740 mmHg 96%
    18:00 +6°C° 0 mm 1 m/s 741 mmHg 96%
    19:00 +6°C° 0 mm 1 m/s 741 mmHg 96%
    20:00 +6°C° 0 mm 2 m/s 742 mmHg 95%
    21:00 +5°C° 0 mm 2 m/s 742 mmHg 95%
    22:00 +5°C° 0 mm 2 m/s 743 mmHg 94%
    23:00 +4°C° 0 mm 2 m/s 744 mmHg 94%

    Depois de amanhã, 20 Janeiro, Domingo

    Tempo Temperatura Precipitação Vento Pressão Humidade
    00:00 +4°C° 0.1 mm 4 m/s 744 mmHg 92%
    01:00 +3°C° 0.1 mm 6 m/s 745 mmHg 91%
    02:00 +4°C° 0.1 mm 7 m/s 746 mmHg 90%
    03:00 +3°C° 0.1 mm 7 m/s 746 mmHg 88%
    04:00 +3°C° 0.1 mm 7 m/s 747 mmHg 87%
    05:00 +3°C° 0.1 mm 6 m/s 748 mmHg 86%
    06:00 +2°C° 0 mm 6 m/s 749 mmHg 85%
    07:00 +2°C° 0 mm 6 m/s 750 mmHg 84%
    08:00 +1°C° 0 mm 5 m/s 751 mmHg 83%
    09:00 +2°C° 0 mm 5 m/s 751 mmHg 80%
    10:00 +2°C° 0 mm 5 m/s 752 mmHg 77%
    11:00 +3°C° 0 mm 5 m/s 753 mmHg 74%
    12:00 +3°C° 0 mm 5 m/s 753 mmHg 74%
    13:00 +4°C° 0 mm 4 m/s 753 mmHg 74%
    14:00 +4°C° 0 mm 3 m/s 754 mmHg 74%
    15:00 +3°C° 0 mm 3 m/s 754 mmHg 78%
    16:00 +2°C° 0 mm 2 m/s 754 mmHg 82%
    17:00 +1°C° 0 mm 2 m/s 755 mmHg 86%
    18:00 +1°C° 0 mm 2 m/s 755 mmHg 85%
    19:00 +1°C° 0 mm 2 m/s 755 mmHg 84%
    20:00 +1°C° 0 mm 1 m/s 756 mmHg 84%
    21:00 +1°C° 0 mm 2 m/s 756 mmHg 83%
    22:00 +1°C° 0 mm 2 m/s 755 mmHg 83%
    23:00 +1°C° 0 mm 2 m/s 755 mmHg 82%

    21 Janeiro, Segunda-feira

    Tempo Temperatura Precipitação Vento Pressão Humidade
    00:00 +1°C° 0 mm 2 m/s 754 mmHg 83%
    01:00 0°C° 0 mm 3 m/s 754 mmHg 83%
    02:00 0°C° 0 mm 3 m/s 753 mmHg 83%
    03:00 +1°C° 0 mm 3 m/s 753 mmHg 84%
    04:00 0°C° 0 mm 4 m/s 752 mmHg 84%
    05:00 +1°C° 0 mm 4 m/s 752 mmHg 85%
    06:00 +1°C° 0 mm 5 m/s 750 mmHg 84%
    07:00 +2°C° 0 mm 6 m/s 749 mmHg 83%
    08:00 +2°C° 0 mm 6 m/s 748 mmHg 83%
    09:00 +2°C° 0.1 mm 8 m/s 746 mmHg 82%
    10:00 +2°C° 0.1 mm 9 m/s 744 mmHg 81%
    11:00 +3°C° 0.1 mm 10 m/s 743 mmHg 80%
    12:00 +2°C° 2.7 mm 9 m/s 742 mmHg 82%
    13:00 +2°C° 2.7 mm 8 m/s 741 mmHg 84%
    14:00 +1°C° 2.7 mm 8 m/s 740 mmHg 86%
    15:00 +1°C° 0.2 mm 6 m/s 740 mmHg 84%
    16:00 0°C° 0.2 mm 5 m/s 740 mmHg 82%
    17:00 -1°C° 0.2 mm 4 m/s 740 mmHg 80%
    18:00 -1°C° 0.3 mm 5 m/s 739 mmHg 80%
    19:00 -2°C° 0.3 mm 6 m/s 739 mmHg 80%
    20:00 -2°C° 0.3 mm 7 m/s 738 mmHg 80%
    21:00 -2°C° 0.6 mm 7 m/s 738 mmHg 81%
    22:00 -2°C° 0.6 mm 8 m/s 738 mmHg 81%
    23:00 -2°C° 0.6 mm 8 m/s 738 mmHg 81%

    22 Janeiro, Terça-feira

    Tempo Temperatura Precipitação Vento Pressão Humidade
    00:00 -2°C° 0.1 mm 7 m/s 738 mmHg 82%
    01:00 -2°C° 0.1 mm 6 m/s 738 mmHg 82%
    02:00 -2°C° 0.1 mm 5 m/s 738 mmHg 82%
    03:00 -2°C° 0.3 mm 5 m/s 738 mmHg 82%
    04:00 -2°C° 0.3 mm 5 m/s 738 mmHg 81%
    05:00 -2°C° 0.3 mm 5 m/s 738 mmHg 81%
    06:00 -2°C° 0.2 mm 5 m/s 738 mmHg 82%
    07:00 -2°C° 0.2 mm 5 m/s 738 mmHg 83%
    08:00 -2°C° 0.2 mm 5 m/s 738 mmHg 83%
    09:00 -2°C° 0.2 mm 5 m/s 738 mmHg 83%
    10:00 -1°C° 0.2 mm 5 m/s 738 mmHg 83%
    11:00 -1°C° 0.2 mm 5 m/s 738 mmHg 83%
    12:00 -1°C° 0.2 mm 5 m/s 737 mmHg 84%
    13:00 -1°C° 0.2 mm 5 m/s 737 mmHg 85%
    14:00 -1°C° 0.2 mm 4 m/s 737 mmHg 86%
    15:00 -1°C° 0.1 mm 4 m/s 737 mmHg 87%
    16:00 -1°C° 0.1 mm 4 m/s 737 mmHg 88%
    17:00 -1°C° 0.1 mm 4 m/s 737 mmHg 88%
    18:00 -1°C° 0.1 mm 4 m/s 737 mmHg 88%
    19:00 -1°C° 0.1 mm 4 m/s 737 mmHg 87%
    20:00 -1°C° 0.1 mm 4 m/s 737 mmHg 87%
    21:00 -1°C° 0.1 mm 4 m/s 737 mmHg 87%
    22:00 -1°C° 0.1 mm 4 m/s 737 mmHg 88%
    23:00 -1°C° 0.1 mm 4 m/s 737 mmHg 88%

    23 Janeiro, Quarta-feira

    Tempo Temperatura Precipitação Vento Pressão Humidade
    00:00 -1°C° 0.2 mm 5 m/s 737 mmHg 88%
    01:00 -1°C° 0.2 mm 5 m/s 737 mmHg 87%
    02:00 -1°C° 0.2 mm 5 m/s 737 mmHg 87%
    03:00 -1°C° 0.1 mm 5 m/s 738 mmHg 87%
    04:00 -1°C° 0.1 mm 5 m/s 738 mmHg 87%
    05:00 0°C° 0.1 mm 5 m/s 738 mmHg 87%
    06:00 -1°C° 0.1 mm 5 m/s 738 mmHg 87%
    07:00 -1°C° 0.1 mm 5 m/s 739 mmHg 86%
    08:00 -1°C° 0.1 mm 5 m/s 739 mmHg 85%
    09:00 0°C° 0 mm 4 m/s 740 mmHg 86%
    10:00 +1°C° 0 mm 4 m/s 740 mmHg 87%
    11:00 +1°C° 0 mm 4 m/s 740 mmHg 88%
    12:00 +1°C° 0.1 mm 4 m/s 740 mmHg 87%
    13:00 +3°C° 0.1 mm 4 m/s 740 mmHg 85%
    14:00 +2°C° 0.1 mm 5 m/s 740 mmHg 84%
    15:00 +2°C° 0 mm 5 m/s 740 mmHg 85%
    16:00 +2°C° 0 mm 6 m/s 740 mmHg 85%
    17:00 +1°C° 0 mm 6 m/s 740 mmHg 85%
    18:00 0°C° 0 mm 7 m/s 741 mmHg 83%
    19:00 0°C° 0 mm 7 m/s 741 mmHg 81%
    20:00 0°C° 0 mm 7 m/s 742 mmHg 80%
    21:00 -1°C° 0 mm 6 m/s 743 mmHg 82%
    22:00 -1°C° 0 mm 5 m/s 744 mmHg 84%
    23:00 -1°C° 0 mm 4 m/s 745 mmHg 86%
    Mostrar mais